CAPE
0 0 0 0 0 0 0 0 0 0 0 0 0 0 0 0 0 0 0 0 0 0 0 0 0 0 0 0 0 0 0 0 0 0 0 0 0 0 0 0 0 0 0 0
0 0 0 0 0 0 0 0 0 0 0 0 0 0 0 0 0 0 0 0 0 0 0 0 0 0 0 0 0 0 0 0 0 0 0 0 0 0 0 0 0 0 0 0
0 0 0 0 0 0 0 0 0 0 0 0 0 0 0 0 0 0 0 0 0 0 0 0 0 0 0 0 0 0 0 0 0 0 0 0 0 0 0 0 0 0 0 0
0 0 0 0 0 0 0 0 0 0 0 0 0 0 0 0 0 0 0 0 0 0 0 0 0 0 0 0 0 0 0 0 0 0 0 0 0 0 0 0 0 0 0 0
0 0 0 0 0 0 0 0 0 0 0 0 0 0 0 0 0 0 0 0 0 0 0 0 0 0 0 0 0 0 0 0 0 0 0 0 0 0 0 0 0 0 0 0
0 0 0 0 0 0 0 0 0 0 0 0 0 0 0 0 0 0 0 0 0 0 0 0 0 0 0 0 0 0 0 0 0 0 0 0 0 0 0 0 0 0 0 0
0 0 0 0 0 0 0 0 0 0 0 0 0 0 0 0 0 0 0 0 0 0 0 0 0 0 0 0 0 0 0 0 0 0 0 0 0 0 0 0 0 0 0 0
0 0 0 0 0 0 0 0 0 0 0 0 0 0 0 0 0 0 0 0 0 0 0 0 0 0 0 0 0 0 0 0 0 0 0 0 0 0 0 0 0 0 0 0
0 0 0 0 0 0 0 0 0 0 0 0 0 0 0 0 0 0 0 0 0 0 0 0 0 0 0 0 0 0 0 0 0 0 0 0 0 0 0 0 0 0 0 0
0 0 0 0 0 0 0 0 0 0 0 0 0 0 0 0 0 0 0 0 0 0 0 0 0 0 0 0 0 0 0 0 0 0 0 0 0 0 0 0 0 0 0 3
0 0 0 0 0 0 0 0 0 0 0 0 0 0 0 0 0 0 0 0 0 0 0 0 0 0 0 0 0 0 0 0 0 0 0 0 0 0 0 0 0 5 4 6
0 0 0 0 0 0 0 0 0 0 0 0 0 0 0 0 0 0 0 0 0 0 0 0 0 0 0 0 0 0 0 0 0 0 0 0 0 0 0 0 5 8 17 16
0 0 0 0 0 0 0 0 0 0 0 0 0 0 0 0 0 0 0 0 0 0 0 0 0 0 0 0 0 0 0 0 0 0 0 0 0 0 0 0 5 2 7 13
0 0 0 0 0 0 0 0 0 0 0 0 0 0 0 0 0 0 0 0 0 0 0 0 0 0 0 0 0 0 0 0 0 0 0 0 0 0 0 0 3 0 0 4
0 0 0 0 0 0 0 0 0 0 0 0 0 0 0 0 0 0 0 0 0 0 0 0 0 0 0 0 0 0 0 0 0 0 0 0 0 0 0 0 0 0 0 1
0 0 0 0 0 0 0 0 0 0 0 0 0 0 0 0 0 0 0 0 0 0 0 0 0 0 0 0 0 0 0 0 0 0 0 0 0 0 1 0 0 1 2 0
0 0 0 0 0 0 0 0 0 0 0 0 0 0 0 0 0 0 0 0 0 0 0 0 0 0 0 0 0 0 0 0 0 0 0 0 0 0 0 0 2 1 0 1
0 0 0 0 0 0 0 0 0 0 0 0 0 0 0 0 0 0 0 0 0 0 0 0 0 0 0 0 0 0 0 0 0 0 0 0 0 1 6 1 1 4 0 3
0 0 0 0 0 0 0 0 0 0 0 0 0 0 0 0 0 0 0 0 0 0 0 0 0 0 0 0 0 0 0 0 0 0 0 10 4 4 8 3 4 5 7 10
0 0 0 0 0 0 0 0 0 0 0 0 0 0 0 0 0 0 0 0 0 0 0 0 0 0 0 0 0 0 0 0 0 0 1 2 0 1 2 1 5 6 2 6
0 0 0 0 0 0 0 0 0 0 0 0 0 0 0 0 0 0 0 0 0 0 0 0 0 0 0 0 0 0 0 0 0 0 0 0 0 0 1 2 2 2 5 7
0 0 0 0 0 0 0 0 0 0 0 0 0 0 0 0 0 0 0 0 0 0 0 0 0 0 0 3 0 0 0 0 0 0 0 0 0 1 0 0 0 0 1 1
0 0 0 0 0 0 0 0 0 0 0 0 0 0 0 0 0 0 0 0 0 0 0 0 0 0 1 0 0 0 0 0 0 0 0 0 0 0 0 0 0 1 0 0
0 0 0 0 0 0 0 0 0 0 0 0 0 0 0 0 0 0 0 0 0 0 0 0 0 0 3 0 0 0 0 0 0 0 0 1 0 0 0 0 0 0 1 1
0 0 0 0 0 0 0 0 0 0 0 0 0 0 0 0 0 0 0 0 0 0 0 0 0 0 0 0 0 0 0 0 0 0 0 0 0 0 0 0 0 0 0 0
0 0 0 0 0 0 0 0 0 0 0 0 0 0 0 0 0 0 0 0 0 0 0 0 0 0 0 0 0 0 0 0 0 0 2 0 0 0 0 0 0 0 0 0
0 0 0 0 0 0 0 0 0 0 0 0 0 0 0 0 0 0 0 0 0 0 0 0 0 0 0 0 0 0 0 0 0 1 0 0 0 0 0 0 0 0 0 0
CIN
0 0 0 0 0 0 0 0 0 0 0 0 0 0 0 0 0 0 0 0 0 0 0 0 0 0 0 0 0 0 0 0 0 0 0 0 0 0 0 0 0 0 0 0
0 0 0 0 0 0 0 0 0 0 0 0 0 0 0 0 0 0 0 0 0 0 0 0 0 0 0 0 0 0 0 0 0 0 0 0 0 0 0 0 0 0 0 0
0 0 0 0 0 0 0 0 0 0 0 0 0 0 0 0 0 0 0 0 0 0 0 0 0 0 0 0 0 0 0 0 0 0 0 0 0 0 0 0 0 0 0 0
0 0 0 0 0 0 0 0 0 0 0 0 0 0 0 0 0 0 0 0 0 0 0 0 0 0 0 0 0 0 0 0 0 0 0 0 0 0 0 0 0 0 0 0
0 0 0 0 0 0 0 0 0 0 0 0 0 0 0 0 0 0 0 0 0 0 0 0 0 0 0 0 0 0 0 0 0 0 0 0 0 0 0 0 0 0 0 0
0 0 0 0 0 0 0 0 0 0 0 0 0 0 0 0 0 0 0 0 0 0 0 0 0 0 0 0 0 0 0 0 0 0 0 0 0 0 0 0 0 0 0 0
0 0 0 0 0 0 0 0 0 0 0 0 0 0 0 0 0 0 0 0 0 0 0 0 0 0 0 0 0 0 0 0 0 0 0 0 0 0 0 0 0 0 0 0
0 0 0 0 0 0 0 0 0 0 0 0 0 0 0 0 0 0 0 0 0 0 0 0 0 0 0 0 0 0 0 0 0 0 0 0 0 0 0 0 0 0 0 0
0 0 0 0 0 0 0 0 0 0 0 0 0 0 0 0 0 0 0 0 0 0 0 0 0 0 0 0 0 0 0 0 0 0 0 0 0 0 0 0 0 0 0 0
0 0 0 0 0 0 0 0 0 0 0 0 0 0 0 0 0 0 0 0 0 0 0 0 0 0 0 0 0 0 0 0 0 0 0 0 0 0 0 0 0 0 -1 -1
0 0 0 0 0 0 0 0 0 0 0 0 0 0 0 0 0 0 0 0 0 0 0 0 0 0 0 0 0 0 0 0 0 0 0 0 0 0 0 0 0 -1 -2 -2
0 0 0 0 0 0 0 0 0 0 0 0 0 0 0 0 0 0 0 0 0 0 0 0 0 0 0 0 0 0 0 0 0 0 0 0 0 0 0 0 0 0 0 -1
0 0 0 0 0 0 0 0 0 0 0 0 0 0 0 0 0 0 0 0 0 0 0 0 0 0 0 0 0 0 0 0 0 0 0 0 0 0 0 0 0 0 0 0
0 0 0 0 0 0 0 0 0 0 0 0 0 0 0 0 0 0 0 0 0 0 0 0 0 0 0 0 0 0 0 0 0 0 0 0 0 0 0 -1 0 -1 0 0
0 0 0 0 0 0 0 0 0 0 0 0 0 0 0 0 0 0 0 0 0 0 0 0 0 0 0 0 0 0 0 0 0 0 0 0 0 0 0 -1 -1 0 0 -1
0 0 0 0 0 0 0 0 0 0 0 0 0 0 0 0 0 0 0 0 0 0 0 0 0 0 0 0 0 0 0 0 0 0 0 0 0 0 -1 -1 0 -1 -1 -1
0 0 0 0 0 0 0 0 0 0 0 0 0 0 0 0 0 0 0 0 0 0 0 0 0 0 0 0 0 0 0 0 0 0 0 0 0 -1 0 -1 -4 -1 0 0
0 0 0 0 0 0 0 0 0 0 0 0 0 0 0 0 0 0 0 0 0 0 0 0 0 0 0 0 0 0 0 0 0 0 0 -1 -2 -3 -2 -1 -1 -1 -1 0
0 0 0 0 0 0 0 0 0 0 0 0 0 0 0 0 0 0 0 0 0 0 0 0 0 0 0 0 0 0 0 0 0 0 -1 0 -1 -1 -1 -1 -1 -1 -1 0
0 0 0 0 0 0 0 0 0 0 0 0 0 0 0 0 0 0 0 0 0 0 0 0 0 0 0 0 0 0 0 0 0 -1 -1 -1 -1 -1 -1 -1 -1 0 0 0
0 0 0 0 0 0 0 0 0 0 0 0 0 0 0 0 0 0 0 0 0 0 0 0 0 0 0 0 0 0 0 0 0 0 0 0 0 0 -1 -1 0 0 0 0
0 0 0 0 0 0 0 0 0 0 0 0 0 0 0 0 0 0 0 0 0 0 0 0 0 0 0 0 0 0 0 0 0 0 0 0 0 0 -1 0 0 -1 0 -2
0 0 0 0 0 0 0 0 0 0 0 0 0 0 0 0 0 0 0 0 0 0 0 0 0 0 0 0 0 0 0 0 0 0 0 0 0 0 0 0 -2 -2 -1 -1
0 0 0 0 0 0 0 0 0 0 0 0 0 0 0 0 0 0 0 0 0 0 0 0 0 0 0 0 0 0 0 0 0 0 0 0 0 0 0 -1 0 -1 -1 0
0 0 0 0 0 0 0 0 0 0 0 0 0 0 0 0 0 0 0 0 0 0 0 0 0 0 0 0 0 0 0 0 0 -1 0 0 0 0 0 0 -2 0 -1 0
0 0 0 0 0 0 0 0 0 0 0 0 0 0 0 0 0 0 0 0 0 0 0 0 0 0 0 0 0 0 0 0 0 0 -1 0 0 0 0 -1 -1 -1 -1 0
0 0 0 0 0 0 0 0 0 0 0 0 0 0 0 0 0 0 0 0 0 0 0 0 0 0 0 0 0 0 0 0 0 -1 -3 0 0 0 0 0 -1 0 -1 -1
Wind_Speed
2 5 4 5 7 10 7 5 7 3 7 3 1 4 5 5 2 7 7 7 7 6 5 5 4 3 4 6 7 5 5 6 6 6 6 6 6 7 8 9 10 11 13 14
1 3 4 1 2 7 4 3 4 3 5 5 2 1 3 3 2 4 6 7 7 6 6 4 3 4 5 5 5 5 6 6 6 6 6 7 8 10 11 11 12 12 13 13
2 3 2 4 9 7 5 4 6 6 3 2 3 4 2 1 4 6 6 7 8 7 5 4 4 3 5 4 5 6 5 5 6 6 7 8 9 9 10 11 10 11 12 13
3 2 2 2 3 4 5 3 3 6 4 3 5 3 1 2 4 8 9 8 7 6 5 4 2 4 4 4 4 5 5 6 6 6 7 7 8 9 9 9 11 12 12 13
4 4 3 2 3 6 5 2 3 4 4 4 2 2 4 2 3 2 5 6 5 5 4 4 4 3 3 4 5 5 5 5 6 6 8 9 10 10 10 10 11 11 12 14
2 4 5 2 1 2 4 2 2 3 3 2 4 2 5 1 2 5 7 6 6 5 4 4 2 2 2 3 4 5 6 6 6 6 7 9 9 10 9 9 11 11 13 12
3 2 6 5 3 1 4 5 2 4 3 2 3 5 3 5 3 4 5 6 6 5 4 3 2 0 1 3 5 5 6 6 6 6 7 7 7 8 10 10 11 11 12 12
3 2 7 0 2 5 4 3 5 5 3 2 2 1 2 3 5 6 6 6 5 4 3 2 1 1 3 5 5 6 6 6 7 7 7 8 9 9 9 9 10 12 12 12
8 5 2 2 5 4 5 6 4 1 3 4 4 4 4 5 6 6 6 5 3 2 3 1 2 4 5 6 6 6 6 7 7 8 7 7 7 10 8 8 9 10 10 11
3 2 3 3 3 3 2 3 2 2 2 3 2 2 4 2 4 4 4 4 2 1 1 3 4 5 4 6 6 6 7 7 7 6 10 7 6 6 7 7 8 10 10 11
1 1 4 2 1 2 3 0 1 1 1 1 2 3 2 2 3 4 4 2 1 2 3 4 5 5 6 6 6 6 6 7 7 6 7 9 7 7 8 8 9 12 11 11
6 5 4 4 4 2 3 3 0 2 3 3 2 2 3 3 3 4 3 2 0 1 2 5 6 6 7 6 6 6 7 6 7 7 6 7 9 10 15 18 22 23 24 19
5 5 4 5 5 2 3 5 7 7 5 2 2 2 2 2 3 5 3 1 1 3 4 5 6 7 7 6 6 6 6 8 7 9 7 8 9 10 12 11 19 23 23 23
3 6 4 3 4 5 6 4 2 1 1 2 3 1 2 3 3 3 1 2 3 4 5 5 6 7 6 6 5 6 7 15 8 8 8 8 9 10 10 11 11 11 16 21
6 7 5 6 5 4 4 1 3 2 2 3 2 2 3 4 3 3 2 3 4 5 5 5 6 9 6 6 7 7 7 7 7 7 7 11 10 10 9 10 10 11 11 14
5 6 5 4 2 2 2 1 2 4 4 4 5 4 5 4 4 3 3 3 2 5 6 6 7 9 6 6 7 7 7 15 14 8 8 9 9 10 10 10 11 11 10 11
5 3 2 2 4 2 4 4 6 7 5 6 8 6 5 4 3 3 4 3 3 5 6 6 10 8 7 7 7 6 6 7 15 9 9 9 10 10 10 10 9 11 11 12
5 3 3 2 3 4 4 6 6 7 6 7 6 6 5 5 4 4 5 6 5 6 7 8 7 7 6 6 7 6 6 7 8 9 9 10 10 10 10 10 11 11 11 12
4 5 3 3 4 4 5 5 5 5 5 6 6 6 5 3 3 4 4 5 6 6 6 6 13 12 8 9 13 7 7 8 9 9 9 15 11 10 9 10 11 11 10 10
3 2 4 4 5 4 5 4 4 5 5 5 4 4 5 4 4 5 4 6 6 6 7 8 8 6 7 8 15 7 8 9 9 10 10 11 10 11 10 15 13 11 11 11
6 6 6 5 5 5 5 4 5 6 6 6 6 6 6 4 3 4 5 4 5 7 8 14 8 7 6 10 11 7 7 7 9 9 10 10 10 10 10 10 11 11 11 10
3 3 5 5 6 7 6 6 6 5 5 5 4 3 3 5 5 5 6 7 5 12 8 6 6 12 12 21 8 7 7 8 9 8 9 9 9 10 10 10 10 10 10 9
5 4 5 5 6 6 3 5 6 6 6 5 5 5 5 4 3 4 5 5 5 10 9 7 14 21 22 11 7 7 8 9 9 9 9 9 9 10 10 9 9 9 9 9
4 5 5 3 3 3 6 5 6 6 5 4 4 4 3 3 3 4 4 10 15 13 10 10 15 22 23 7 7 8 8 8 8 8 10 17 9 7 8 10 10 10 10 13
4 2 1 1 4 5 3 2 3 2 3 2 2 2 2 2 3 3 5 6 15 13 8 15 21 22 9 8 8 9 9 8 8 9 9 9 9 9 9 10 10 10 9 8
3 3 3 4 3 2 2 3 2 2 2 0 2 1 3 3 4 5 5 10 7 12 8 8 8 9 9 9 10 10 9 9 10 10 12 10 10 9 9 10 10 10 9 9
0 3 2 2 2 3 3 3 3 2 3 1 3 4 3 3 5 8 10 7 7 8 8 8 8 11 10 10 10 10 9 9 13 11 10 9 9 9 9 9 9 8 8 8
Wind_Direction
91 133 141 183 181 177 184 174 176 228 197 268 204 239 249 264 198 173 168 146 149 149 137 103 99 74 47 33 24 7 24 17 1 343 334 326 326 328 330 336 337 334 332 332
79 49 75 172 196 176 197 211 246 213 265 239 15 351 18 328 253 202 147 151 149 136 127 142 88 59 49 35 23 13 15 360 345 340 333 334 337 338 339 338 335 332 329 324
206 41 45 307 217 188 181 196 157 193 196 40 64 87 62 25 205 204 180 159 155 149 143 111 91 67 49 36 24 11 353 343 342 337 337 336 333 331 327 325 321 324 322 321
150 67 200 210 318 161 136 75 119 91 102 132 162 181 234 279 224 205 171 151 134 139 128 122 100 68 61 35 15 356 338 338 332 331 327 321 323 323 318 322 326 323 319 317
154 196 293 36 185 144 162 62 29 106 103 91 90 47 319 345 340 167 128 121 135 134 127 118 87 62 58 31 354 333 328 320 323 328 327 330 327 321 321 323 321 316 313 313
88 141 217 184 194 82 93 207 354 118 87 61 129 34 249 185 113 101 111 125 132 126 109 97 83 74 31 15 352 336 325 319 315 318 319 316 309 314 312 309 309 310 308 306
147 215 286 246 242 52 121 203 129 109 130 158 152 198 274 147 113 118 122 126 115 112 111 142 143 210 19 5 345 312 307 309 313 304 303 296 309 307 305 307 307 303 306 309
97 112 265 174 70 164 163 124 149 175 178 66 27 343 226 174 136 139 122 114 111 137 154 127 101 298 15 356 311 306 315 314 301 295 300 304 295 297 300 308 309 312 311 311
178 217 253 328 127 126 145 149 191 139 184 186 199 232 209 203 169 162 153 141 137 157 154 162 52 41 2 316 322 313 311 302 299 292 287 285 294 304 306 308 308 305 309 306
117 187 148 109 62 78 109 154 206 224 195 153 203 289 267 161 157 148 144 166 168 183 12 356 3 360 302 295 302 310 303 300 296 292 309 303 286 288 300 303 305 307 304 309
287 175 67 350 294 191 208 93 358 21 24 344 17 8 34 131 146 151 149 146 117 8 352 321 320 307 306 308 314 307 296 293 298 301 289 294 289 300 305 302 299 307 309 309
213 187 137 170 188 197 184 203 358 317 324 63 47 117 129 144 143 136 145 134 39 334 311 303 314 312 312 304 297 296 307 311 307 303 290 299 307 308 307 307 309 311 314 313
181 161 127 115 104 57 88 51 33 39 21 317 117 90 88 119 134 140 126 139 307 289 293 303 302 292 281 276 285 298 296 303 296 305 301 305 304 302 307 308 309 311 314 316
107 118 97 136 136 79 83 86 38 8 353 8 357 70 106 139 126 139 203 249 271 285 289 286 282 279 282 304 312 294 292 303 301 298 295 296 296 300 304 308 312 309 311 314
89 62 93 118 109 116 120 86 321 301 316 306 300 229 169 168 189 213 230 268 280 279 286 287 302 310 314 307 309 302 294 288 287 285 287 300 304 301 300 302 303 305 308 310
83 70 45 46 325 302 299 289 254 276 250 236 225 213 200 190 193 217 253 268 329 310 310 319 305 295 298 302 295 286 277 301 312 307 300 302 301 298 301 303 302 303 307 309
92 327 32 305 218 243 243 227 239 234 231 202 205 197 184 197 225 263 288 301 305 297 288 281 281 292 289 281 275 289 290 294 306 305 296 297 299 299 297 295 294 303 303 302
119 127 164 173 203 222 239 224 212 219 212 210 183 177 190 202 242 282 305 317 311 293 280 275 280 285 280 288 292 290 287 294 297 297 298 298 296 293 298 301 296 301 302 302
150 178 217 246 253 250 254 242 222 211 188 179 172 204 210 222 241 267 284 286 286 290 291 299 307 313 297 294 314 300 294 292 293 293 293 298 300 295 296 299 300 302 306 314
167 190 213 233 235 219 246 234 212 196 201 182 186 209 244 254 246 260 269 265 263 266 283 280 285 279 276 286 306 291 287 288 293 297 298 297 303 301 301 306 306 309 310 308
214 214 215 225 252 254 243 232 206 216 209 198 200 223 240 268 270 280 288 284 278 278 293 304 299 293 294 301 295 293 292 291 294 297 298 298 301 300 300 303 304 302 303 304
215 225 236 228 228 246 235 222 212 214 206 212 226 239 253 273 281 275 247 247 276 297 300 289 285 297 305 308 307 299 298 298 297 296 293 293 295 298 296 294 294 294 294 295
232 232 240 221 224 234 231 220 219 210 215 217 224 230 231 240 248 270 294 283 299 300 308 301 300 309 311 311 305 301 298 295 293 291 290 291 291 287 285 289 294 298 299 298
233 230 239 241 214 194 234 230 215 209 206 201 210 212 237 278 274 248 266 295 305 305 295 305 308 310 312 315 301 291 289 289 287 284 284 289 285 285 293 295 293 293 295 298
220 245 171 174 218 239 226 196 143 147 161 184 238 255 279 267 234 280 281 287 302 309 298 303 309 312 309 293 289 292 293 288 283 278 292 297 290 286 286 289 291 292 293 300
186 226 236 215 227 211 174 152 156 137 133 308 309 331 306 286 286 305 285 294 297 304 302 298 295 297 296 295 292 288 287 290 291 293 293 289 286 283 284 289 292 293 293 293
148 145 88 96 81 100 116 124 112 87 60 57 286 288 304 306 304 313 308 302 298 297 298 295 293 297 294 294 292 290 290 290 290 292 291 291 288 285 284 286 290 290 292 295